STARLINK-35773

Last updated on Fri Dec 19 2025 00:02:10 GMT+0000 (Coordinated Universal Time)

1 67042U 25294N 25351.83335648 -.01343710 53820-3 -32062-2 0 9994 2 67042 43.0000 151.2778 0001785 280.7702 137.0364 15.95746419 2126
UTC large
Height (km)
Speed (km/s)
/
Latitude / Longitude
Inclination (degrees)
Orbital Period (minutes)
Azimuth
Elevation
Range (km)
Doppler Factor

Next 0 passes for location: London (51.5072 / 0.1276)

Sorry there are no passes over London.